STARLINK-11687 [DTC] (63555 NORAD) Tracking and Keplerian Element Data

This shows tracking and keplerian element data for the satellite.

Feedback or suggestion? Click here.




ElementValue
Catalog63555
NameSTARLINK-11687 [DTC]
Epoch Orbit4074
Epoch Day354.18020786
Epoch Year2025
RAAN273.0766
Inclination42.9996
Eccentricity0.0001808
Argument of Perigee253.5823
Mean Anonmoly106.4846
Mean Motion15.70858016
Decay Rate0.00179808
L11 63555U 25075H 25354.18020786 .00179808 00000+0 13736-2 0 9998
L22 63555 42.9996 273.0766 0001808 253.5823 106.4846 15.70858016 40746



Live tracking and technical data element details for STARLINK-11687 [DTC] (NORAD 63555). STARLINK-11687 [DTC] can be tracked NOW for your location showing map with azimuth and elevation plus other details from your city location.







IsCatalogInMostPopularTable: catalog: 63555, numindb: 2
Update: records affected: 1



GetName: 63555 STARLINK-11687 [DTC]

Hit Count: updated at: Sun, 08 Feb 2026 08:24:29 GMT